Miscellaneous Local Product
Issued by NWS Hastings, NE

Home | Current Version | Previous Version | Graphics & Text | Print | Product List | Glossary On
Versions: 1 2 3 4 5 6 7 8 9 10 11 12 13 14 15 16 17 18 19 20 21 22 23 24 25 26 27 28 29 30 31 32 33 34 35 36 37 38 39 40 41 42 43 44 45 46 47 48 49 50
000
AXUS43 KGID 021302
MISGRI

GID CWA HOURLY WEATHER ROUNDUP
NATIONAL WEATHER SERVICE HASTINGS NE
800 AM CDT SAT MAY 02 2015

NOTE: "FAIR" INDICATES FEW OR NO CLOUDS BELOW 12,000 FEET WITH NO
SIGNIFICANT WEATHER AND/OR OBSTRUCTIONS TO VISIBILITY.

...SOUTH CENTRAL NEBRASKA...

CITY           SKY/WX    TMP DP  RH WIND       PRES   REMARKS
GRAND ISLAND   MOSUNNY   58  52  80 S3        29.91R
HASTINGS       MOSUNNY   61  50  67 SW12      29.90S
KEARNEY        SUNNY     61  48  63 SW10      29.91S
ORD            SUNNY     56  50  80 CALM      29.90R
YORK           PTSUNNY   59  54  82 S9        29.92S
AURORA         PTSUNNY   58  53  85 SE3       29.91S
LEXINGTON      SUNNY     51  49  92 SE3       29.91R
HOLDREGE       SUNNY     58  49  72 S8        29.91S
HEBRON         CLOUDY    61  50  67 CALM      29.93S

...NEBRASKA PANHANDLE...

CITY           SKY/WX    TMP DP  RH WIND       PRES   REMARKS
CHADRON        SUNNY     51  47  86 SW5       29.84S
ALLIANCE       SUNNY     48  45  89 S3        29.88S
SCOTTSBLUFF    SUNNY     50  45  83 CALM      29.90R
SIDNEY         SUNNY     48  46  93 W7        29.93S

...WESTERN AND NORTH CENTRAL NEBRASKA...

CITY           SKY/WX    TMP DP  RH WIND       PRES   REMARKS
VALENTINE      SUNNY     54  50  86 S3        29.88R
AINSWORTH      SUNNY     53  50  90 S5        29.89S
ONEILL         MOSUNNY   55  51  86 S7        29.88S
BROKEN BOW     SUNNY     55  48  77 CALM      29.91R
IMPERIAL       SUNNY     51  47  86 S5        29.92S
NORTH PLATTE   FOG       50  49  96 CALM      29.91S VSB 1/4
MCCOOK         SUNNY     57  49  74 SW6       29.92S

...EASTERN NEBRASKA...

CITY           SKY/WX    TMP DP  RH WIND       PRES   REMARKS
NORFOLK        PTSUNNY   62  53  72 S16       29.89F
SO SIOUX CITY  CLOUDY    51  45  79 SE8       29.92S
TEKAMAH        CLOUDY    56  50  80 S5        29.93S
COLUMBUS       PTSUNNY   59  52  77 SE5       29.94F
ALBION         PTSUNNY   60  51  74 SE10      29.90S
OMAHA EPPLEY   TSTM      61  54  77 S6        29.95R
OFFUTT AFB     LGT RAIN  62  55  76 SE8       29.93S
MILLARD        LGT RAIN  63  55  77 S9        29.93F
LINCOLN        CLOUDY    61  54  77 S10       29.95R
NEBRASKA CITY  CLOUDY    55  53  94 S9        30.00F
BEATRICE       LGT RAIN  57  49  74 SE12      29.97S
FALLS CITY     LGT RAIN  56  51  84 SE5       30.03R

...NORTHERN KANSAS...

CITY           SKY/WX    TMP DP  RH WIND       PRES   REMARKS
GOODLAND       SUNNY     53  50  89 S10       29.95F
HILL CITY      MOSUNNY   62  51  67 SW12      29.94S
NORTON         SUNNY     57  48  72 S8        29.93S
PHILLIPSBURG   SUNNY     61  52  72 SE3       29.94S
SMITH CENTER   PTSUNNY   61  50  67 S12       29.94S
BELOIT         CLOUDY    63  52  67 S5        29.96R
HAYS           PTSUNNY   63  46  55 SW12      29.96S
RUSSELL        CLOUDY    60  54  80 S12       29.95S
CONCORDIA      CLOUDY    62  49  62 S10       29.96R
SALINA         LGT RAIN  61  53  75 S14       29.98R
TOPEKA         CLOUDY    59  45  59 SE5       30.03R



USA.gov is the U.S. government's official web portal to all federal, state and local government web resources and services.